Lewistown, MT

12:00 AM MST on February 25, 2017 (GMT -0700)
Lewistown Municipal

Weather History for KLWT - December, 2013

Change the Weather History Date:

Tuesday, December 17, 2013

  Actual Average Record
Temperature  
Mean Temperature 34 °F 23 °F  
Max Temperature 49 °F 33 °F 65 °F (1925)
Min Temperature 19 °F 12 °F -30 °F (1924)
Degree Days  
Heating Degree Days 31 42  
Month to date heating degree days 836 697  
Since 1 July heating degree days 2814 2825  
Cooling Degree Days 0 0  
Month to date cooling degree days 0 0  
Year to date cooling degree days 277 210  
Moisture  
Dew Point 23 °F    
Average Humidity 60    
Maximum Humidity 84    
Minimum Humidity 36    
Precipitation  
Precipitation 0.00 in 0.02 in 0.28 in (1967)
Month to date precipitation 0.30 0.35  
Year to date precipitation 22.13 16.54  
Snow  
Snow 0.00 in - - ()
Snow Depth T in    
Sea Level Pressure  
Sea Level Pressure 29.98 in    
Wind  
Wind Speed 14 mph (SW)    
Max Wind Speed 33 mph    
Max Gust Speed 42 mph    
Visibility 10 miles    
Events      
T = Trace of Precipitation, MM = Missing Value Source: NWS Daily Summary

Daily Weather History Graph

Daily Weather History Graph

Search for Another Location

Airport or City:

Trip Planner

Search our weather history database for the weather conditions in past years. The results will help you decide how hot, cold, wet, or windy it might be!

Date:

Astronomy

Dec. 17, 2013 Rise Set
Actual Time 7:58 AM MST 4:29 PM MST
Civil Twilight 7:23 AM MST 5:05 PM MST
Nautical Twilight 6:44 AM MST 5:44 PM MST
Astronomical Twilight 6:07 AM MST 6:21 PM MST
Moon 5:16 PM MST (12/17) 7:53 AM MST (12/17)
Length of Visible Light 9h 41m
Length of Day
8h 30m
Full, 100% of the Moon is Illuminated
Dec 17
Full
Dec 25
Last Quarter
Jan 1
New
Jan 7
First Quarter
Jan 15
Full

Hourly Weather History & Observations

Time (MST) Temp. Windchill Dew Point Humidity Pressure Visibility Wind Dir Wind Speed Gust Speed Precip Events Conditions
12:54 AM 21.0 °F 13.4 °F 17.1 °F 85% 30.18 in 10.0 mi SE 5.8 mph - N/A   Clear
1:54 AM 19.0 °F 11.1 °F 16.0 °F 88% 30.26 in 10.0 mi ESE 5.8 mph - N/A   Clear
2:54 AM 19.9 °F 14.9 °F 16.0 °F 85% 30.24 in 10.0 mi Variable 3.5 mph - N/A   Clear
3:54 AM 27.0 °F 23.0 °F 19.9 °F 75% 30.19 in 10.0 mi WSW 3.5 mph - N/A   Clear
4:54 AM 28.9 °F 23.9 °F 21.0 °F 72% 30.18 in 10.0 mi NW 4.6 mph - N/A   Clear
5:54 AM 30.9 °F 27.5 °F 21.9 °F 69% 30.14 in 10.0 mi West 3.5 mph - N/A   Clear
6:54 AM 37.0 °F 26.7 °F 21.9 °F 54% 30.11 in 10.0 mi WSW 19.6 mph - N/A   Clear
7:54 AM 37.9 °F 28.2 °F 24.1 °F 57% 30.09 in 10.0 mi SW 18.4 mph - N/A   Clear
8:54 AM 41.0 °F 32.2 °F 25.0 °F 53% 30.06 in 10.0 mi WSW 18.4 mph - N/A   Clear
9:54 AM 42.1 °F 33.9 °F 26.1 °F 53% 30.05 in 10.0 mi SW 17.3 mph - N/A   Clear
10:54 AM 44.1 °F 35.2 °F 26.1 °F 49% 30.01 in 10.0 mi SW 23.0 mph - N/A   Clear
11:54 AM 46.0 °F 38.5 °F 25.0 °F 44% 29.98 in 10.0 mi WSW 19.6 mph - N/A   Clear
12:54 PM 48.9 °F - 23.0 °F 36% 29.93 in 10.0 mi WSW 26.5 mph 33.4 mph N/A   Clear
1:54 PM 46.9 °F - 23.0 °F 39% 29.92 in 10.0 mi WSW 19.6 mph 31.1 mph N/A   Clear
2:54 PM 45.0 °F 37.9 °F 26.1 °F 48% 29.92 in 10.0 mi SW 16.1 mph - N/A   Clear
3:54 PM 45.0 °F 37.9 °F 26.1 °F 48% 29.90 in 10.0 mi WSW 16.1 mph - N/A   Clear
4:54 PM 46.0 °F 39.0 °F 26.1 °F 46% 29.88 in 10.0 mi SW 17.3 mph - N/A   Clear
5:54 PM 48.0 °F - 24.1 °F 39% 29.85 in 10.0 mi SW 23.0 mph 31.1 mph N/A   Clear
6:54 PM 46.0 °F 38.3 °F 25.0 °F 44% 29.82 in 10.0 mi SW 20.7 mph - N/A   Clear
7:54 PM 45.0 °F 37.6 °F 25.0 °F 46% 29.80 in 10.0 mi SW 17.3 mph - N/A   Clear
8:54 PM 44.1 °F 40.8 °F 25.0 °F 47% 29.78 in 10.0 mi Variable 5.8 mph - N/A   Clear
9:54 PM 42.1 °F 35.7 °F 26.1 °F 53% 29.78 in 10.0 mi WSW 11.5 mph - N/A   Clear
10:54 PM 44.1 °F 37.4 °F 24.1 °F 45% 29.77 in 10.0 mi WSW 13.8 mph - N/A   Clear
11:54 PM 43.0 °F 36.4 °F 25.0 °F 49% 29.74 in 10.0 mi SW 12.7 mph - N/A   Clear